Location: Unspecified
(25.0110°S, 0.0000°E)
Time: 03:46:06
(UTC+00:00)

Vanguard 1 Rocket - Visible Passes

Search period start: 04 April 2026 00:00
Search period end: 14 April 2026 00:00
Orbit: 654 x 4213 km, 34.3° (Epoch: 28 March)

Date Brightness Start Highest point End Pass type
(mag) Time Alt. Az. Time Alt. Az. Time Alt. Az.
4 Apr 10.4 18:19:46 10° WSW 18:36:40 88° SSE 19:03:16 10° ENE visible
4 Apr 10.9 20:48:25 10° WSW 21:09:17 50° NW 21:21:00 35° N visible
4 Apr 11.7 23:28:18 10° WNW 23:38:15 15° NW 23:38:15 15° NW visible
5 Apr 10.6 19:33:49 10° WSW 19:52:56 67° NW 20:13:37 21° NE visible
5 Apr 11.3 22:06:24 10° W 22:25:01 28° NW 22:30:54 26° NNW visible
6 Apr 10.4 18:20:18 10° WSW 18:36:43 84° NNW 19:03:04 10° NE visible
6 Apr 11.1 20:49:20 10° WSW 21:08:59 42° NW 21:23:45 25° N visible
6 Apr 11.8 23:36:33 10° WNW 23:40:59 11° NW 23:41:04 11° NW visible
7 Apr 10.8 19:34:27 10° WSW 19:52:47 58° NW 20:16:50 12° NE visible
7 Apr 11.5 22:08:47 10° W 22:24:54 22° NW 22:34:10 18° NNW visible
8 Apr 10.4 18:20:52 10° WSW 18:36:45 74° NNW 19:02:37 10° NE visible
8 Apr 11.3 20:50:34 10° W 21:08:49 35° NW 21:27:34 15° NNE visible
9 Apr 10.9 19:35:15 10° WSW 19:52:41 49° NW 20:17:01 10° NNE visible
9 Apr 11.8 22:12:30 10° WNW 22:25:04 16° NW 22:38:10 10° NNW visible
10 Apr 10.6 18:21:30 10° WSW 18:36:48 65° NNW 19:01:54 10° NE visible
10 Apr 11.5 20:52:18 10° W 21:08:48 28° NW 21:28:27 10° N visible
11 Apr 11.1 19:36:18 10° W 19:52:42 40° NW 20:15:35 10° NNE visible
11 Apr 11.9 22:19:59 10° NW 22:25:35 11° NW 22:31:19 10° NNW visible
12 Apr 10.7 18:22:16 10° WSW 18:36:55 55° NNW 19:00:54 10° NE visible
12 Apr 11.7 20:54:49 10° W 21:09:02 21° NW 21:25:44 10° N visible
13 Apr 11.4 19:37:42 10° W 19:52:52 32° NW 20:13:45 10° NNE visible
